Weather in Krasnaya Polyana

Russia / Krasnodar Krai     45°03′13″N   41°06′03″E
temp.,
°C
wind,
m/s
gust,
m/s
humid.,
%
clouds,
%
prec.,
mm/h
press.,
hPa
HPBL,
m
5 march, fri
fri500:000ssw23840 0.0 102162
03:000sse23820 0.0 102160
06:00−2s23740 0.0 102059
09:00+1sse34620 0.0 1019164
12:00+6s23480 0.0 1017444
15:00+9sw234624 0.0 1017751
18:00+4sse457225 0.0 101889
21:00+2sse466413 0.0 101989
6 march, sat
sat600:00+2sse34690 0.0 101865
03:00+2sse34630 0.0 101835
06:00+2sse446137 0.0 101761
09:00+7ssw485361 0.0 1017255
12:00+14wsw10163594 0.0 10151551
15:00+14wsw10153989 0.0 10131573
18:00+10w81752100 0.0 1013887
21:00+5wnw91392100 2.9 1017813
7 march, sun
sun700:000nw71197100 5.5 1020715
03:00−1nw6874100 7.1 1023828
06:00−4w358030 0.0 1026155
09:00−2wnw456916 0.0 1027711
12:00+1w34490 0.0 10251180
15:00+2w34440 0.0 10241438
18:000wsw34630 0.0 102481
21:00−2sw36740 0.0 1025156
8 march, mon
mon800:00−2sw36730 0.0 1024167
03:00−2sw47730 0.0 1023248
06:00−2ssw47760 0.0 1022252
09:00+1sw58580 0.0 1021946
12:00+3wsw68530 0.0 10191290
15:00+5wsw585110 0.0 10171621
18:00+1w366427 0.0 1018104
21:00−1sw467421 0.0 1019108
9 march, tue
tue900:00−1sw35770 0.0 101896
03:00−1ssw33750 0.0 101858
06:00−1s357386 0.0 101785
09:00+2s335961 0.0 1016284
12:00+6wsw47510 0.0 10151400
15:00+7w10135330 0.1 10141950
18:00+4w7146472 0.0 1015837
21:00+1wnw7139685 0.8 1017607